ONEWEB-0294 (49083 NORAD) Tracking and Keplerian Element Data

This shows tracking and keplerian element data for the satellite.

Feedback or suggestion? Click here.




ElementValue
Catalog49083
NameONEWEB-0294
Epoch Orbit368
Epoch Day261.91667824
Epoch Year2021
RAAN356.4294
Inclination87.3371
Eccentricity0.0021486
Argument of Perigee190.1412
Mean Anonmoly73.9814
Mean Motion15.22547193
Decay Rate-0.00914256
L11 49083U 21075J 21261.91667824 -.00914256 00000-0 -42750-1 0 9992
L22 49083 87.3371 356.4294 0021486 190.1412 73.9814 15.22547193 3685

Live tracking and technical data element details for ONEWEB-0294 (NORAD 49083). ONEWEB-0294 can be tracked NOW for your location showing map with azimuth and elevation plus other details from your city location.

Track the satellite on the map from your city or location and see movement details for azimuth, elevation, latitude, longitude, range, height, and movement on the map or in text.







IsCatalogInMostPopularTable: catalog: 49083, numindb: 7
Update: records affected: 1



GetName: 49083 ONEWEB-0294

Hit Count: updated at: Fri, 24 Sep 2021 18:32:23 GMT